カタログに戻る

FENGYUN 1C DEB

運用中SSO
NORAD 31695·DEBRIS·🇨🇳 China

打ち上げ May 10, 1999 から Taiyuan Satellite Launch Center

Loading…

次のパス (今後24時間)

TLE

最新Source: Space-Track

元期: Sep 14, 2026, 11:33 UTC

1 31695U 99025CDD 26257.48165297  .00006455  00000-0  70519-3 0  9998
2 31695  98.2559 353.2076 0161826  66.8671 294.9500 14.79081863700416

AllMySatでFENGYUN 1C DEBをリアルタイム追跡

Download on the App Store